{"data":{"norad_id":55813,"epoch":"2026-09-20T00:00:28.382400Z","epoch_age_seconds":64972,"freshness":"FRESH","line1":"1 55813U 23029T   26263.00032850  .00000017  00000+0  93296-5 0  9996","line2":"2 55813  87.9104 286.0824 0001665  73.4933 286.6383 13.19727508171402","mean_motion":13.19727508,"eccentricity":0.0001665,"inclination_deg":87.9104,"raan_deg":286.0824,"arg_perigee_deg":73.4933,"mean_anomaly_deg":286.6383,"bstar":9.3296e-6,"rev_number":17140,"period_min":109.11343374075,"perigee_km":1184.5015800551,"apogee_km":1187.0203580788,"semimajor_km":7563.8979690669,"source":"CELESTRAK","updated_at":"2026-09-20T09:00:44.762464Z"}}